Location: Chervonnoye
(48.6000°N, 34.4000°E)
Time: 19:30:23
(UTC+00:00)

VELOX 1 - Visible Passes

Search period start: 07 December 2021 00:00
Search period end: 17 December 2021 00:00
Orbit: 627 x 641 km, 98.3° (Epoch: 07 December)

Date Brightness Start Highest point End Pass type
(mag) Time Alt. Az. Time Alt. Az. Time Alt. Az.
07 Dec ? 15:08:34 10° N 15:12:48 45° WNW 15:17:00 10° SW visible
08 Dec ? 15:30:30 10° N 15:34:21 29° WNW 15:38:08 10° SW visible
09 Dec ? 14:15:28 10° NNE 14:19:50 55° E 14:24:08 10° S visible
09 Dec ? 15:52:38 10° NNW 15:55:48 20° WNW 15:58:58 10° WSW visible
10 Dec ? 14:37:05 10° NNE 14:41:31 89° E 14:45:55 10° SSW visible
10 Dec ? 16:15:07 10° NNW 16:17:13 13° NW 16:19:18 10° W visible
11 Dec ? 14:58:49 10° N 15:03:09 57° WNW 15:07:26 10° SSW visible
12 Dec ? 15:20:40 10° N 15:24:43 36° WNW 15:28:43 10° SW visible
13 Dec ? 15:42:41 10° N 15:46:12 24° WNW 15:49:43 10° WSW visible
14 Dec ? 14:27:23 10° NNE 14:31:48 71° ESE 14:36:10 10° S visible
14 Dec ? 16:04:56 10° NNW 16:07:38 16° WNW 16:10:19 10° W visible
15 Dec ? 14:49:03 10° N 14:53:28 72° WNW 14:57:49 10° SSW visible
15 Dec ? 16:27:59 10° NW 16:28:59 11° NW 16:30:01 10° WNW visible
16 Dec ? 15:10:50 10° N 15:15:02 45° WNW 15:19:12 10° SW visible
